Location: Invercargill
(46.4000°S, 168.3500°E)
Time: 11:21:51
(UTC+12:00)

ISS - Visible Passes

Search period start: 24 September 2020 00:00
Search period end: 04 October 2020 01:00
Orbit: 419 x 420 km, 51.6° (Epoch: 24 September)

Date Brightness Start Highest point End Pass type
(mag) Time Alt. Az. Time Alt. Az. Time Alt. Az.
25 Sep -1.7 05:17:02 10° NNW 05:19:50 24° NE 05:22:41 10° E visible
26 Sep -1.3 04:31:30 14° NNE 04:32:39 15° NE 04:34:45 10° E visible
27 Sep -3.3 06:19:09 17° NW 06:21:39 57° NNE 06:25:03 10° ESE visible
28 Sep -2.7 05:33:43 34° NNE 05:34:19 37° NE 05:37:31 10° ESE visible
29 Sep -1.4 04:48:13 20° ENE 04:48:13 20° ENE 04:49:52 10° E visible
29 Sep -3.6 06:21:10 18° WNW 06:23:36 67° SSW 06:27:04 10° ESE visible
30 Sep -3.8 05:35:35 60° NW 05:36:09 86° NNE 05:39:38 10° ESE visible
01 Oct -2.1 04:49:57 34° E 04:49:57 34° E 04:52:08 10° ESE visible
01 Oct -2.8 06:22:54 13° W 06:25:41 41° SSW 06:28:59 10° ESE visible
02 Oct -0.5 04:04:15 12° ESE 04:04:15 12° ESE 04:04:35 10° ESE visible
02 Oct -3.2 05:37:13 38° WSW 05:38:08 50° SSW 05:41:31 10° ESE visible
03 Oct -2.6 04:51:29 45° SE 04:51:29 45° SE 04:54:03 10° ESE visible
03 Oct -2.4 06:24:38 10° WSW 06:27:49 33° S 06:31:00 10° ESE visible
